Climatologie pour Saint-Brevin les Pins
Jour • Résumé pour juillet 11, 2017 Système :  Métrique    Anglais   Mixte
« - 1 jour
+ 1 jour »
Jour Semaine Mois Année Personnalisé
  Maximum : Minimum : Moyenne :
Température sous abri : -17.8 °C -8.7 °C -7.2 °C
Point de rosée : -17.8 °C -10.1 °C -9.2 °C
Humidité : Humidity % 66 % 80 %
Vitesse du vent : 0 km/h 0 km/h 13.5 km/h
Rafale : 0 km/h - -
Direction :- - WSW
Pression : 0 hPa 34279.9 hPa -
Précipitations : 38.1 mm    
Historical Graphs
 
 
Tableau de données pour juillet 11, 2017
Heure Tempé Pt rosée Pression Vent Vitesse Rafale Humidité Taux pluie (/hr) Soleil
-17.8 °C -17.8 °C 0 hPa Calm     Humidity % 0 mm SolarRadiationWatts/m^2 W/m2 Conditions
00:00 -8 °C -9.3 °C 34361.1 hPa WNW 5.1 km/h 28.5 km/h 86 % 0 mm 0 W/m2
00:10 -8.1 °C -9.4 °C 34361.1 hPa West 7.7 km/h 31.1 km/h 86 % 0 mm 0 W/m2
00:15 -8.2 °C -9.6 °C 34361.1 hPa WNW 5.1 km/h 23.3 km/h 85 % 0 mm 0 W/m2
00:20 -8.2 °C -9.6 °C 34361.1 hPa West 7.7 km/h 20.8 km/h 85 % 0 mm 0 W/m2
00:25 -8.2 °C -9.5 °C 34361.1 hPa WNW 23.3 km/h 25.9 km/h 86 % 0 mm 0 W/m2
00:30 -8.2 °C -9.6 °C 34361.1 hPa WNW 15.6 km/h 25.9 km/h 85 % 0 mm 0 W/m2
00:35 -8.2 °C -9.4 °C 34361.1 hPa WNW 10.3 km/h 25.9 km/h 86 % 0 mm 0 W/m2
00:40 -8.2 °C -9.4 °C 34361.1 hPa WNW 7.7 km/h 25.9 km/h 86 % 0 mm 0 W/m2
00:45 -8.2 °C -9.5 °C 34361.1 hPa West 10.3 km/h 28.5 km/h 86 % 0 mm 0 W/m2
00:50 -8.2 °C -9.5 °C 34361.1 hPa West 5.1 km/h 28.5 km/h 86 % 0 mm 0 W/m2
00:55 -8.2 °C -9.4 °C 34361.1 hPa West 5.1 km/h 20.8 km/h 87 % 0 mm 0 W/m2
01:00 -8.2 °C -9.4 °C 34361.1 hPa West 7.7 km/h 20.8 km/h 87 % 0 mm 0 W/m2
01:05 -8.2 °C -9.4 °C 34361.1 hPa WNW 7.7 km/h 20.8 km/h 87 % 0 mm 0 W/m2
01:10 -8.2 °C -9.4 °C 34361.1 hPa West 10.3 km/h 23.3 km/h 87 % 0 mm 0 W/m2
01:15 -8.2 °C -9.4 °C 34361.1 hPa West 12.9 km/h 23.3 km/h 87 % 0 mm 0 W/m2
01:20 -8.2 °C -9.5 °C 34361.1 hPa WNW 12.9 km/h 20.8 km/h 86 % 0 mm 0 W/m2
01:25 -8.2 °C -9.5 °C 34361.1 hPa West 5.1 km/h 25.9 km/h 86 % 0 mm 0 W/m2
01:30 -8.2 °C -9.6 °C 34361.1 hPa WSW 12.9 km/h 28.5 km/h 85 % 0 mm 0 W/m2
01:35 -8.2 °C -9.6 °C 34361.1 hPa WNW 12.9 km/h 28.5 km/h 85 % 0 mm 0 W/m2
01:40 -8.2 °C -9.6 °C 34361.1 hPa West 5.1 km/h 25.9 km/h 85 % 0 mm 0 W/m2
01:45 -8.2 °C -9.6 °C 34361.1 hPa West 5.1 km/h 25.9 km/h 85 % 0 mm 0 W/m2
01:50 -8.1 °C -9.6 °C 34361.1 hPa West 7.7 km/h 33.6 km/h 85 % 0 mm 0 W/m2
01:55 -8.1 °C -9.5 °C 34361.1 hPa West 15.6 km/h 33.6 km/h 85 % 0 mm 0 W/m2
02:00 -8.1 °C -9.5 °C 34361.1 hPa NW 2.6 km/h 23.3 km/h 85 % 0 mm 0 W/m2
02:05 -8.1 °C -9.4 °C 34361.1 hPa NW 18.2 km/h 23.3 km/h 86 % 0 mm 0 W/m2
02:10 -8.1 °C -9.4 °C 34361.1 hPa NW 20.8 km/h 33.6 km/h 86 % 0 mm 0 W/m2
02:15 -8.1 °C -9.4 °C 34361.1 hPa WNW 7.7 km/h 33.6 km/h 86 % 0 mm 0 W/m2
02:20 -8.2 °C -9.4 °C 34361.1 hPa West 7.7 km/h 23.3 km/h 87 % 0 mm 0 W/m2
02:25 -8.2 °C -9.4 °C 34361.1 hPa WNW 2.6 km/h 23.3 km/h 87 % 0 mm 0 W/m2
02:30 -8.2 °C -9.3 °C 34361.1 hPa West 5.1 km/h 20.8 km/h 88 % 0 mm 0 W/m2
02:35 -8.2 °C -9.3 °C 34361.1 hPa WNW 12.9 km/h 18.2 km/h 88 % 0 mm 0 W/m2
02:40 -8.2 °C -9.3 °C 34347.6 hPa WNW 10.3 km/h 25.9 km/h 88 % 0 mm 0 W/m2
02:45 -8.2 °C -9.4 °C 34347.6 hPa West 10.3 km/h 25.9 km/h 87 % 0 mm 0 W/m2
02:50 -8.2 °C -9.4 °C 34347.6 hPa West 12.9 km/h 25.9 km/h 87 % 0 mm 0 W/m2
02:55 -8.3 °C -9.4 °C 34347.6 hPa WNW 12.9 km/h 25.9 km/h 88 % 0 mm 0 W/m2
03:00 -8.3 °C -9.3 °C 34347.6 hPa West 5.1 km/h 20.8 km/h 89 % 0 mm 0 W/m2
03:05 -8.4 °C -9.4 °C 34347.6 hPa West 2.6 km/h 20.8 km/h 89 % 0 mm 0 W/m2
03:10 -8.4 °C -9.4 °C 34337.4 hPa West 12.9 km/h 20.8 km/h 90 % 0 mm 0 W/m2
03:15 -8.5 °C -9.3 °C 34337.4 hPa Calm   20.8 km/h 91 % 0 mm 0 W/m2
03:20 -8.6 °C -9.4 °C 34337.4 hPa Calm   12.9 km/h 91 % 0 mm 0 W/m2
03:25 -8.6 °C -9.4 °C 34337.4 hPa West 10.3 km/h 12.9 km/h 91 % 0 mm 0 W/m2
03:30 -8.6 °C -9.4 °C 34337.4 hPa West 5.1 km/h 15.6 km/h 91 % 0 mm 0 W/m2
03:35 -8.7 °C -9.4 °C 34337.4 hPa West 2.6 km/h 15.6 km/h 92 % 0 mm 0 W/m2
03:40 -8.6 °C -9.4 °C 34327.3 hPa West 2.6 km/h 10.3 km/h 91 % 0 mm 0 W/m2
03:45 -8.7 °C -9.4 °C 34337.4 hPa Calm   10.3 km/h 92 % 0 mm 0 W/m2
03:50 -8.7 °C -9.4 °C 34337.4 hPa WSW 2.6 km/h 12.9 km/h 92 % 0 mm 0 W/m2
03:55 -8.7 °C -9.4 °C 34337.4 hPa West 5.1 km/h 12.9 km/h 91 % 0 mm 0 W/m2
04:00 -8.7 °C -9.4 °C 34337.4 hPa Calm   12.9 km/h 91 % 0 mm 0 W/m2
04:05 -8.7 °C -9.5 °C 34337.4 hPa WNW 10.3 km/h 12.9 km/h 91 % 0 mm 0 W/m2
04:10 -8.7 °C -9.6 °C 34337.4 hPa West 7.7 km/h 15.6 km/h 91 % 0 mm 0 W/m2
04:15 -8.7 °C -9.6 °C 34337.4 hPa WSW 12.9 km/h 15.6 km/h 91 % 0 mm 0 W/m2
04:20 -8.6 °C -9.4 °C 34337.4 hPa WSW 7.7 km/h 18.2 km/h 91 % 0 mm 0 W/m2
04:25 -8.5 °C -9.4 °C 34337.4 hPa WNW 10.3 km/h 20.8 km/h 90 % 0 mm 0 W/m2
04:30 -8.4 °C -9.4 °C 34337.4 hPa West 2.6 km/h 20.8 km/h 90 % 0 mm 0 W/m2
04:35 -8.4 °C -9.3 °C 34337.4 hPa WNW 10.3 km/h 18.2 km/h 90 % 0 mm 0 W/m2
04:40 -8.4 °C -9.4 °C 34337.4 hPa West 2.6 km/h 18.2 km/h 89 % 0 mm 0 W/m2
04:45 -8.4 °C -9.3 °C 34337.4 hPa Calm   18.2 km/h 90 % 0 mm 0 W/m2
04:50 -8.4 °C -9.3 °C 34337.4 hPa West 5.1 km/h 18.2 km/h 90 % 0 mm 0 W/m2
04:55 -8.5 °C -9.4 °C 34337.4 hPa WSW 7.7 km/h 15.6 km/h 90 % 0 mm 0 W/m2
05:00 -8.5 °C -9.4 °C 34337.4 hPa WSW 5.1 km/h 15.6 km/h 90 % 0 mm 0 W/m2
05:05 -8.5 °C -9.4 °C 34337.4 hPa WSW 2.6 km/h 10.3 km/h 90 % 0 mm 0 W/m2
05:10 -8.5 °C -9.4 °C 34337.4 hPa Calm   10.3 km/h 90 % 0 mm 0 W/m2
05:20 -8.5 °C -9.4 °C 34327.3 hPa WSW 7.7 km/h 15.6 km/h 90 % 0 mm 0 W/m2
05:25 -8.5 °C -9.4 °C 34327.3 hPa WSW 5.1 km/h 15.6 km/h 90 % 0 mm 0 W/m2
05:30 -8.4 °C -9.4 °C 34327.3 hPa SW 2.6 km/h 10.3 km/h 90 % 0 mm 0 W/m2
05:35 -8.4 °C -9.3 °C 34327.3 hPa WSW 7.7 km/h 10.3 km/h 90 % 0 mm 0 W/m2
05:40 -8.4 °C -9.4 °C 34327.3 hPa WSW 2.6 km/h 12.9 km/h 89 % 0 mm 0 W/m2
05:45 -8.4 °C -9.4 °C 34327.3 hPa Calm   12.9 km/h 89 % 0 mm 0 W/m2
05:50 -8.4 °C -9.4 °C 34327.3 hPa West 5.1 km/h 12.9 km/h 89 % 0 mm 0 W/m2
05:55 -8.3 °C -9.6 °C 34327.3 hPa West 12.9 km/h 20.8 km/h 87 % 0 mm 0 W/m2
06:00 -8.2 °C -9.5 °C 34327.3 hPa West 12.9 km/h 25.9 km/h 86 % 0 mm 0 W/m2
06:05 -8.2 °C -9.7 °C 34327.3 hPa West 15.6 km/h 28.5 km/h 84 % 0 mm 0 W/m2
06:10 -8.2 °C -9.8 °C 34327.3 hPa West 7.7 km/h 28.5 km/h 83 % 0 mm 0 W/m2
06:15 -8.1 °C -9.7 °C 34327.3 hPa WNW 10.3 km/h 23.3 km/h 83 % 0 mm 0 W/m2
06:20 -8.1 °C -9.8 °C 34327.3 hPa Calm   25.9 km/h 82 % 0 mm 0 W/m2
06:25 -8.1 °C -9.9 °C 34327.3 hPa SW 10.3 km/h 25.9 km/h 81 % 0 mm 0 W/m2
06:30 -8.1 °C -9.8 °C 34327.3 hPa West 5.1 km/h 23.3 km/h 82 % 0 mm 0 W/m2
06:35 -8.1 °C -9.8 °C 34327.3 hPa West 2.6 km/h 20.8 km/h 82 % 0 mm 5 W/m2
06:40 -8 °C -9.8 °C 34327.3 hPa West 10.3 km/h 23.3 km/h 82 % 0 mm 5 W/m2
06:45 -8 °C -9.7 °C 34327.3 hPa West 10.3 km/h 31.1 km/h 82 % 0 mm 9 W/m2
06:50 -8 °C -9.7 °C 34327.3 hPa West 12.9 km/h 31.1 km/h 82 % 0 mm 16 W/m2
06:55 -8 °C -9.8 °C 34337.4 hPa NW 10.3 km/h 28.5 km/h 81 % 0 mm 18 W/m2
07:00 -8.1 °C -9.9 °C 34337.4 hPa WNW 12.9 km/h 33.6 km/h 81 % 0 mm 19 W/m2
07:05 -8 °C -10.1 °C 34337.4 hPa SW 12.9 km/h 33.6 km/h 79 % 0 mm 18 W/m2
07:10 -8 °C -9.9 °C 34327.3 hPa West 12.9 km/h 36.2 km/h 80 % 0 mm 18 W/m2
07:15 -8.1 °C -10 °C 34337.4 hPa Calm   36.2 km/h 80 % 0 mm 19 W/m2
07:20 -8.1 °C -10.1 °C 34337.4 hPa WSW 18.2 km/h 28.5 km/h 79 % 0 mm 28 W/m2
07:25 -8 °C -10.1 °C 34327.3 hPa WNW 2.6 km/h 28.5 km/h 79 % 0 mm 37 W/m2
07:30 -8 °C -10.1 °C 34337.4 hPa NW 12.9 km/h 28.5 km/h 79 % 0 mm 47 W/m2
07:35 -8 °C -10.1 °C 34337.4 hPa WNW 2.6 km/h 28.5 km/h 79 % 0 mm 58 W/m2
07:40 -7.9 °C -10 °C 34337.4 hPa NW 12.9 km/h 25.9 km/h 79 % 0 mm 74 W/m2
07:45 -7.9 °C -9.9 °C 34337.4 hPa West 7.7 km/h 31.1 km/h 79 % 0 mm 79 W/m2
07:50 -7.9 °C -9.8 °C 34337.4 hPa West 7.7 km/h 31.1 km/h 80 % 0 mm 83 W/m2
07:55 -7.8 °C -9.8 °C 34337.4 hPa West 5.1 km/h 20.8 km/h 80 % 0 mm 90 W/m2
08:00 -7.8 °C -9.8 °C 34337.4 hPa Calm   20.8 km/h 80 % 0 mm 84 W/m2
08:05 -7.8 °C -9.9 °C 34327.3 hPa WSW 2.6 km/h 25.9 km/h 79 % 0 mm 81 W/m2
08:10 -7.8 °C -9.9 °C 34337.4 hPa WSW 7.7 km/h 25.9 km/h 79 % 0 mm 102 W/m2
08:15 -7.7 °C -9.9 °C 34337.4 hPa West 5.1 km/h 25.9 km/h 78 % 0 mm 105 W/m2
08:20 -7.7 °C -9.9 °C 34337.4 hPa West 10.3 km/h 23.3 km/h 78 % 0 mm 83 W/m2
08:30 -7.7 °C -9.8 °C 34337.4 hPa West 12.9 km/h 23.3 km/h 79 % 0 mm 76 W/m2
08:35 -7.7 °C -9.8 °C 34337.4 hPa NW 7.7 km/h 23.3 km/h 79 % 0 mm 84 W/m2
08:40 -7.7 °C -9.9 °C 34337.4 hPa West 10.3 km/h 23.3 km/h 78 % 0 mm 86 W/m2
08:45 -7.7 °C -9.9 °C 34337.4 hPa WNW 12.9 km/h 20.8 km/h 78 % 0 mm 91 W/m2
08:50 -7.7 °C -9.8 °C 34337.4 hPa West 7.7 km/h 25.9 km/h 78 % 0 mm 137 W/m2
08:55 -7.6 °C -9.9 °C 34337.4 hPa West 7.7 km/h 28.5 km/h 77 % 0 mm 167 W/m2
09:00 -7.5 °C -9.9 °C 34337.4 hPa WSW 12.9 km/h 28.5 km/h 76 % 0 mm 218 W/m2
09:05 -7.4 °C -9.8 °C 34337.4 hPa SW 20.8 km/h 28.5 km/h 76 % 0 mm 206 W/m2
09:10 -7.4 °C -10.1 °C 34337.4 hPa WSW 20.8 km/h 33.6 km/h 73 % 0 mm 207 W/m2
09:15 -7.3 °C -9.9 °C 34337.4 hPa SW 12.9 km/h 33.6 km/h 74 % 0 mm 209 W/m2
09:20 -7.3 °C -9.9 °C 34337.4 hPa WSW 12.9 km/h 25.9 km/h 74 % 0 mm 218 W/m2
09:25 -7.2 °C -9.7 °C 34337.4 hPa WSW 20.8 km/h 25.9 km/h 75 % 0 mm 239 W/m2
09:30 -7.1 °C -9.5 °C 34337.4 hPa WSW 7.7 km/h 23.3 km/h 76 % 0 mm 202 W/m2
09:35 -7.2 °C -9.7 °C 34337.4 hPa WNW 7.7 km/h 23.3 km/h 75 % 0 mm 206 W/m2
09:40 -7.2 °C -9.6 °C 34337.4 hPa WSW 2.6 km/h 23.3 km/h 76 % 0 mm 225 W/m2
09:45 -7.1 °C -9.4 °C 34337.4 hPa WSW 7.7 km/h 20.8 km/h 77 % 0 mm 193 W/m2
09:50 -7.1 °C -9.5 °C 34347.6 hPa SW 2.6 km/h 25.9 km/h 76 % 0 mm 283 W/m2
09:55 -7.1 °C -9.6 °C 34337.4 hPa WSW 23.3 km/h 25.9 km/h 75 % 0 mm 243 W/m2
10:00 -7.1 °C -9.4 °C 34337.4 hPa NNW 7.7 km/h 25.9 km/h 76 % 0 mm 248 W/m2
10:05 -7.1 °C -9.6 °C 34337.4 hPa SSW 15.6 km/h 25.9 km/h 75 % 0 mm 299 W/m2
10:10 -6.8 °C -9.4 °C 34337.4 hPa WSW 15.6 km/h 25.9 km/h 75 % 0 mm 383 W/m2
10:15 -6.7 °C -9.4 °C 34337.4 hPa WSW 12.9 km/h 31.1 km/h 74 % 0 mm 329 W/m2
10:20 -6.8 °C -9.4 °C 34337.4 hPa SW 10.3 km/h 31.1 km/h 74 % 0 mm 281 W/m2
10:25 -6.8 °C -9.3 °C 34337.4 hPa WSW 7.7 km/h 31.1 km/h 76 % 0 mm 311 W/m2
10:30 -6.8 °C -9.1 °C 34337.4 hPa West 7.7 km/h 31.1 km/h 77 % 0 mm 657 W/m2
10:35 -6.3 °C -8.8 °C 34337.4 hPa WSW 23.3 km/h 38.8 km/h 75 % 0 mm 626 W/m2
10:40 -6.3 °C -9.5 °C 34337.4 hPa NW 18.2 km/h 44.1 km/h 70 % 0 mm 631 W/m2
10:45 -6.2 °C -9.5 °C 34337.4 hPa SSW 15.6 km/h 46.7 km/h 69 % 0 mm 654 W/m2
10:50 -6.3 °C -9.5 °C 34337.4 hPa West 12.9 km/h 46.7 km/h 70 % 0 mm 701 W/m2
10:55 -6.3 °C -9.5 °C 34337.4 hPa SW 33.6 km/h 36.2 km/h 70 % 0 mm 297 W/m2
11:00 -6.5 °C -9.6 °C 34337.4 hPa West 18.2 km/h 36.2 km/h 71 % 0 mm 424 W/m2
11:05 -6.5 °C -9.4 °C 34337.4 hPa SW 18.2 km/h 33.6 km/h 72 % 0 mm 373 W/m2
11:10 -6.6 °C -9.3 °C 34337.4 hPa West 33.6 km/h 36.2 km/h 73 % 0 mm 334 W/m2
11:15 -6.5 °C -9.2 °C 34337.4 hPa West 23.3 km/h 44.1 km/h 74 % 0 mm 499 W/m2
11:25 -6.2 °C -9.2 °C 34337.4 hPa WSW 12.9 km/h 41.4 km/h 71 % 0 mm 589 W/m2
11:30 -6.3 °C -9.3 °C 34347.6 hPa WSW 28.5 km/h 41.4 km/h 71 % 0 mm 659 W/m2
11:35 -6.2 °C -9.2 °C 34337.4 hPa West 20.8 km/h 41.4 km/h 71 % 0 mm 536 W/m2
11:40 -6.1 °C -9.4 °C 34337.4 hPa WSW 12.9 km/h 38.8 km/h 69 % 0 mm 478 W/m2
11:45 -6.2 °C -9.4 °C 34337.4 hPa WSW 18.2 km/h 44.1 km/h 69 % 0 mm 499 W/m2
11:50 -6.3 °C -9.4 °C 34337.4 hPa West 15.6 km/h 44.1 km/h 70 % 0 mm 555 W/m2
11:55 -6.2 °C -9.3 °C 34347.6 hPa SW 20.8 km/h 38.8 km/h 70 % 0 mm 527 W/m2
12:00 -6.3 °C -9.3 °C 34347.6 hPa SW 33.6 km/h 41.4 km/h 71 % 0 mm 552 W/m2
12:05 -6.2 °C -9.1 °C 34347.6 hPa West 12.9 km/h 41.4 km/h 72 % 0 mm 835 W/m2
12:10 -5.7 °C -9 °C 34337.4 hPa West 15.6 km/h 38.8 km/h 69 % 0 mm 814 W/m2
12:15 -5.7 °C -9.3 °C 34337.4 hPa West 10.3 km/h 38.8 km/h 66 % 0 mm 833 W/m2
12:20 -5.4 °C -8.9 °C 34337.4 hPa WSW 18.2 km/h 44.1 km/h 67 % 0 mm 861 W/m2
12:25 -5.4 °C -9.2 °C 34337.4 hPa West 5.1 km/h 44.1 km/h 66 % 0 mm 800 W/m2
12:30 -5.6 °C -9.3 °C 34347.6 hPa West 18.2 km/h 33.6 km/h 66 % 0 mm 443 W/m2
12:35 -6 °C -9.4 °C 34347.6 hPa West 15.6 km/h 38.8 km/h 68 % 0 mm 661 W/m2
12:40 -5.7 °C -9.1 °C 34347.6 hPa WSW 10.3 km/h 38.8 km/h 69 % 0 mm 640 W/m2
12:45 -5.5 °C -8.9 °C 34337.4 hPa NNW 18.2 km/h 38.8 km/h 68 % 0 mm 594 W/m2
12:50 -5.7 °C -9.2 °C 34347.6 hPa WSW 23.3 km/h 33.6 km/h 67 % 0 mm 645 W/m2
13:00 -6.2 °C -9.3 °C 34347.6 hPa SW 5.1 km/h 41.4 km/h 70 % 0 mm 288 W/m2
13:05 -6.4 °C -9.4 °C 34347.6 hPa West 20.8 km/h 41.4 km/h 71 % 0 mm 281 W/m2
13:10 -6.5 °C -9.3 °C 34347.6 hPa West 23.3 km/h 33.6 km/h 73 % 0 mm 278 W/m2
13:15 -6.4 °C -9.3 °C 34347.6 hPa West 31.1 km/h 38.8 km/h 72 % 0 mm 529 W/m2
13:20 -6.1 °C -9.3 °C 34347.6 hPa WSW 20.8 km/h 44.1 km/h 70 % 0 mm 348 W/m2
13:25 -6.3 °C -9.3 °C 34347.6 hPa WSW 23.3 km/h 44.1 km/h 71 % 0 mm 336 W/m2
13:30 -6.2 °C -9.3 °C 34347.6 hPa WSW 15.6 km/h 38.8 km/h 71 % 0 mm 712 W/m2
13:35 -5.9 °C -9.1 °C 34347.6 hPa WSW 12.9 km/h 36.2 km/h 70 % 0 mm 613 W/m2
13:40 -5.6 °C -8.8 °C 34347.6 hPa SW 20.8 km/h 36.2 km/h 70 % 0 mm 719 W/m2
13:45 -5.5 °C -8.8 °C 34347.6 hPa WSW 10.3 km/h 36.2 km/h 69 % 0 mm 905 W/m2
13:50 -5.7 °C -9 °C 34347.6 hPa WSW 15.6 km/h 41.4 km/h 69 % 0 mm 571 W/m2
13:55 -5.8 °C -9.1 °C 34347.6 hPa WSW 23.3 km/h 41.4 km/h 69 % 0 mm 758 W/m2
14:00 -5.8 °C -9.4 °C 34347.6 hPa WSW 20.8 km/h 41.4 km/h 67 % 0 mm 496 W/m2
14:05 -6 °C -9.2 °C 34337.4 hPa WSW 28.5 km/h 41.4 km/h 70 % 0 mm 561 W/m2
14:10 -6.1 °C -9.2 °C 34347.6 hPa WSW 33.6 km/h 38.8 km/h 71 % 0 mm 522 W/m2
14:15 -5.9 °C -9.1 °C 34337.4 hPa WSW 15.6 km/h 38.8 km/h 70 % 0 mm 592 W/m2
14:20 -5.9 °C -9.2 °C 34347.6 hPa West 20.8 km/h 38.8 km/h 69 % 0 mm 373 W/m2
14:25 -6.3 °C -9.4 °C 34347.6 hPa NW 25.9 km/h 33.6 km/h 70 % 0 mm 172 W/m2
14:30 -6.5 °C -9.4 °C 34337.4 hPa SW 15.6 km/h 41.4 km/h 72 % 0 mm 207 W/m2
14:35 -6.6 °C -9.3 °C 34347.6 hPa WSW 18.2 km/h 41.4 km/h 74 % 0 mm 248 W/m2
14:40 -6.5 °C -9.2 °C 34337.4 hPa WSW 12.9 km/h 44.1 km/h 74 % 0 mm 350 W/m2
14:45 -6.4 °C -9.1 °C 34337.4 hPa WSW 36.2 km/h 44.1 km/h 74 % 0 mm 234 W/m2
14:50 -6.6 °C -9.1 °C 34337.4 hPa South 10.3 km/h 36.2 km/h 75 % 0 mm 244 W/m2
14:55 -6.4 °C -8.9 °C 34337.4 hPa SSE 5.1 km/h 36.2 km/h 76 % 0 mm 517 W/m2
15:00 -5.8 °C -8.5 °C 34337.4 hPa SW 7.7 km/h 38.8 km/h 74 % 0 mm 963 W/m2
15:05 -5.3 °C -8.8 °C 34337.4 hPa West 28.5 km/h 46.7 km/h 67 % 0 mm 995 W/m2
15:10 -5.2 °C -8.9 °C 34347.6 hPa WSW 23.3 km/h 46.7 km/h 66 % 0 mm 940 W/m2
15:15 -5.4 °C -8.9 °C 34347.6 hPa SSW 18.2 km/h 38.8 km/h 67 % 0 mm 926 W/m2
15:20 -5.4 °C -8.9 °C 34347.6 hPa SW 38.8 km/h 41.4 km/h 67 % 0 mm 854 W/m2
15:25 -5.4 °C -8.9 °C 34337.4 hPa West 5.1 km/h 41.4 km/h 67 % 0 mm 766 W/m2
15:30 -5.2 °C -8.7 °C 34337.4 hPa SW 20.8 km/h 33.6 km/h 68 % 0 mm 986 W/m2
15:35 -5.2 °C -8.6 °C 34337.4 hPa West 15.6 km/h 44.1 km/h 68 % 0 mm 986 W/m2
15:40 -5.4 °C -9 °C 34347.6 hPa WSW 25.9 km/h 44.1 km/h 67 % 0 mm 571 W/m2
15:45 -5.4 °C -8.7 °C 34337.4 hPa WSW 10.3 km/h 44.1 km/h 69 % 0 mm 888 W/m2
15:50 -5.4 °C -8.7 °C 34337.4 hPa West 7.7 km/h 36.2 km/h 69 % 0 mm 900 W/m2
15:55 -5.2 °C -8.6 °C 34337.4 hPa SW 18.2 km/h 36.2 km/h 68 % 0 mm 868 W/m2
16:00 -5.4 °C -8.7 °C 34337.4 hPa WSW 28.5 km/h 36.2 km/h 69 % 0 mm 821 W/m2
16:05 -5.5 °C -8.7 °C 34337.4 hPa SW 25.9 km/h 46.7 km/h 70 % 0 mm 798 W/m2
16:10 -5.5 °C -8.8 °C 34337.4 hPa SW 25.9 km/h 46.7 km/h 69 % 0 mm 740 W/m2
16:15 -5.5 °C -8.7 °C 34337.4 hPa WSW 33.6 km/h 44.1 km/h 70 % 0 mm 828 W/m2
16:20 -5.3 °C -8.6 °C 34337.4 hPa WNW 10.3 km/h 41.4 km/h 70 % 0 mm 515 W/m2
16:25 -5.7 °C -8.9 °C 34337.4 hPa WNW 15.6 km/h 44.1 km/h 70 % 0 mm 269 W/m2
16:30 -5.8 °C -8.7 °C 34337.4 hPa WSW 18.2 km/h 49.2 km/h 72 % 0 mm 738 W/m2
16:35 -6.1 °C -8.9 °C 34337.4 hPa SW 28.5 km/h 49.2 km/h 73 % 0 mm 232 W/m2
16:40 -6.2 °C -8.9 °C 34337.4 hPa West 5.1 km/h 49.2 km/h 74 % 0 mm 397 W/m2
16:45 -5.8 °C -8.4 °C 34337.4 hPa SSW 12.9 km/h 38.8 km/h 74 % 0 mm 809 W/m2
16:50 -5.5 °C -8.8 °C 34337.4 hPa NW 15.6 km/h 38.8 km/h 69 % 0 mm 366 W/m2
16:55 -5.6 °C -8.7 °C 34337.4 hPa SW 7.7 km/h 38.8 km/h 71 % 0 mm 882 W/m2
17:00 -5.3 °C -8.6 °C 34337.4 hPa WSW 23.3 km/h 31.1 km/h 69 % 0 mm 459 W/m2
17:05 -5.7 °C -8.9 °C 34327.3 hPa SW 31.1 km/h 41.4 km/h 70 % 0 mm 494 W/m2
17:10 -6 °C -9.1 °C 34327.3 hPa WSW 33.6 km/h 41.4 km/h 71 % 0 mm 374 W/m2
17:15 -6.2 °C -9.1 °C 34327.3 hPa SW 12.9 km/h 36.2 km/h 72 % 0 mm 269 W/m2
17:20 -6.2 °C -8.9 °C 34327.3 hPa West 23.3 km/h 36.2 km/h 73 % 0 mm 255 W/m2
17:25 -6.2 °C -8.7 °C 34327.3 hPa SW 25.9 km/h 36.2 km/h 75 % 0 mm 221 W/m2
17:30 -6.3 °C -8.9 °C 34327.3 hPa WSW 15.6 km/h 33.6 km/h 75 % 0 mm 192 W/m2
17:35 -6.5 °C -8.9 °C 34327.3 hPa SSE 10.3 km/h 36.2 km/h 76 % 0 mm 146 W/m2
17:40 -6.6 °C -8.9 °C 34327.3 hPa SW 18.2 km/h 36.2 km/h 77 % 0 mm 125 W/m2
17:45 -6.7 °C -8.9 °C 34327.3 hPa West 10.3 km/h 36.2 km/h 78 % 0 mm 86 W/m2
17:50 -6.7 °C -8.9 °C 34327.3 hPa WSW 18.2 km/h 36.2 km/h 78 % 0 mm 77 W/m2
17:55 -6.9 °C -8.9 °C 34327.3 hPa WSW 7.7 km/h 36.2 km/h 79 % 0 mm 84 W/m2
18:00 -6.9 °C -9 °C 34327.3 hPa South 7.7 km/h 33.6 km/h 79 % 0 mm 127 W/m2
18:05 -6.8 °C -8.9 °C 34327.3 hPa SSW 12.9 km/h 33.6 km/h 79 % 0 mm 241 W/m2
18:10 -6.7 °C -8.9 °C 34313.7 hPa West 12.9 km/h 44.1 km/h 78 % 0 mm 185 W/m2
18:15 -6.6 °C -8.8 °C 34313.7 hPa SW 7.7 km/h 44.1 km/h 78 % 0 mm 267 W/m2
18:20 -6.6 °C -8.7 °C 34313.7 hPa SW 7.7 km/h 28.5 km/h 78 % 0 mm 264 W/m2
18:25 -6.5 °C -8.9 °C 34313.7 hPa West 15.6 km/h 36.2 km/h 76 % 0 mm 169 W/m2
18:30 -6.7 °C -8.9 °C 34313.7 hPa WSW 20.8 km/h 36.2 km/h 78 % 0 mm 244 W/m2
18:35 -6.6 °C -8.8 °C 34313.7 hPa WSW 23.3 km/h 36.2 km/h 78 % 0 mm 260 W/m2
18:40 -6.6 °C -8.7 °C 34313.7 hPa SW 10.3 km/h 33.6 km/h 78 % 0 mm 97 W/m2
18:45 -6.7 °C -8.9 °C 34313.7 hPa WSW 7.7 km/h 33.6 km/h 78 % 0 mm 181 W/m2
18:50 -6.7 °C -8.9 °C 34313.7 hPa SSW 18.2 km/h 31.1 km/h 78 % 0 mm 141 W/m2
18:55 -6.7 °C -8.9 °C 34313.7 hPa SSW 12.9 km/h 41.4 km/h 78 % 0 mm 134 W/m2
19:00 -6.8 °C -9 °C 34303.6 hPa WSW 10.3 km/h 41.4 km/h 78 % 0 mm 134 W/m2
19:05 -6.7 °C -8.8 °C 34303.6 hPa SW 18.2 km/h 38.8 km/h 79 % 0 mm 130 W/m2
19:10 -6.8 °C -8.9 °C 34303.6 hPa WSW 20.8 km/h 38.8 km/h 78 % 0 mm 104 W/m2
19:15 -6.8 °C -9.1 °C 34303.6 hPa WSW 18.2 km/h 38.8 km/h 78 % 0 mm 93 W/m2
19:20 -6.8 °C -8.9 °C 34303.6 hPa SW 10.3 km/h 36.2 km/h 79 % 0 mm 81 W/m2
19:25 -6.9 °C -8.9 °C 34303.6 hPa SSW 31.1 km/h 36.2 km/h 79 % 0 mm 70 W/m2
19:30 -6.9 °C -9 °C 34303.6 hPa SSW 20.8 km/h 36.2 km/h 79 % 0 mm 74 W/m2
19:35 -6.9 °C -8.9 °C 34303.6 hPa SW 5.1 km/h 33.6 km/h 80 % 0 mm 77 W/m2
19:40 -6.8 °C -8.9 °C 34303.6 hPa South 10.3 km/h 38.8 km/h 79 % 0 mm 67 W/m2
19:45 -6.9 °C -8.9 °C 34303.6 hPa SSW 25.9 km/h 38.8 km/h 79 % 0 mm 60 W/m2
19:50 -6.9 °C -8.9 °C 34303.6 hPa WSW 12.9 km/h 31.1 km/h 80 % 0 mm 46 W/m2
19:55 -7 °C -8.9 °C 34303.6 hPa WSW 23.3 km/h 46.7 km/h 80 % 0 mm 26 W/m2
20:00 -7.1 °C -8.9 °C 34303.6 hPa SW 12.9 km/h 46.7 km/h 81 % 0 mm 28 W/m2
20:05 -7.1 °C -8.9 °C 34303.6 hPa SW 12.9 km/h 46.7 km/h 81 % 0 mm 33 W/m2
20:10 -7.1 °C -8.8 °C 34303.6 hPa South 15.6 km/h 46.7 km/h 82 % 0 mm 26 W/m2
20:15 -7.1 °C -8.8 °C 34303.6 hPa SSW 12.9 km/h 36.2 km/h 82 % 0 mm 26 W/m2
20:20 -7.1 °C -8.8 °C 34303.6 hPa SSW 15.6 km/h 31.1 km/h 82 % 0 mm 21 W/m2
20:25 -7.1 °C -8.7 °C 34303.6 hPa Calm   44.1 km/h 83 % 0 mm 19 W/m2
20:30 -7.1 °C -8.7 °C 34293.4 hPa SW 23.3 km/h 44.1 km/h 83 % 0 mm 21 W/m2
20:35 -7.1 °C -8.7 °C 34293.4 hPa SSW 20.8 km/h 41.4 km/h 83 % 0 mm 19 W/m2
20:40 -7.1 °C -8.6 °C 34293.4 hPa SSW 18.2 km/h 41.4 km/h 84 % 0 mm 16 W/m2
20:45 -7.1 °C -8.6 °C 34293.4 hPa South 23.3 km/h 41.4 km/h 84 % 0 mm 14 W/m2
20:50 -7.1 °C -8.6 °C 34293.4 hPa SW 38.8 km/h 46.7 km/h 84 % 0 mm 11 W/m2
20:55 -7.1 °C -8.6 °C 34293.4 hPa South 15.6 km/h 46.7 km/h 84 % 0 mm 9 W/m2
21:00 -7.1 °C -8.6 °C 34293.4 hPa South 15.6 km/h 38.8 km/h 84 % 0 mm 9 W/m2
21:05 -7.1 °C -8.6 °C 34293.4 hPa South 15.6 km/h 38.8 km/h 84 % 0 mm 7 W/m2
21:10 -7.1 °C -8.6 °C 34293.4 hPa SW 18.2 km/h 41.4 km/h 84 % 0 mm 9 W/m2
21:15 -7.1 °C -8.6 °C 34303.6 hPa West 2.6 km/h 41.4 km/h 84 % 0 mm 9 W/m2
21:20 -7.3 °C -8.5 °C 34303.6 hPa WSW 31.1 km/h 49.2 km/h 87 % 0 mm 5 W/m2
21:25 -7.5 °C -8.5 °C 34293.4 hPa WSW 7.7 km/h 49.2 km/h 89 % 7.62 mm 0 W/m2
21:30 -7.6 °C -8.4 °C 34293.4 hPa SW 18.2 km/h 46.7 km/h 91 % 7.62 mm 0 W/m2
21:35 -7.7 °C -8.4 °C 34293.4 hPa SSW 10.3 km/h 46.7 km/h 92 % 12.7 mm 0 W/m2
21:40 -7.8 °C -8.5 °C 34293.4 hPa SW 18.2 km/h 44.1 km/h 93 % 12.7 mm 0 W/m2
21:45 -7.9 °C -8.6 °C 34293.4 hPa Calm   36.2 km/h 93 % 12.7 mm 0 W/m2
21:50 -7.9 °C -8.4 °C 34293.4 hPa SSW 25.9 km/h 36.2 km/h 94 % 12.7 mm 0 W/m2
21:55 -7.9 °C -8.4 °C 34293.4 hPa SSW 31.1 km/h 41.4 km/h 94 % 12.7 mm 0 W/m2
22:00 -7.9 °C -8.5 °C 34293.4 hPa WSW 20.8 km/h 41.4 km/h 94 % 20.32 mm 0 W/m2
22:05 -7.9 °C -8.4 °C 34293.4 hPa South 15.6 km/h 36.2 km/h 94 % 25.4 mm 0 W/m2
22:10 -7.9 °C -8.3 °C 34293.4 hPa WSW 5.1 km/h 33.6 km/h 95 % 25.4 mm 0 W/m2
22:15 -7.9 °C -8.3 °C 34293.4 hPa SSW 18.2 km/h 33.6 km/h 95 % 25.4 mm 0 W/m2
22:20 -7.9 °C -8.3 °C 34293.4 hPa SSW 5.1 km/h 36.2 km/h 95 % 25.4 mm 0 W/m2
22:25 -7.9 °C -8.3 °C 34293.4 hPa West 10.3 km/h 41.4 km/h 95 % 20.32 mm 0 W/m2
22:30 -7.9 °C -8.3 °C 34293.4 hPa SSW 25.9 km/h 41.4 km/h 95 % 20.32 mm 0 W/m2
22:35 -7.9 °C -8.3 °C 34293.4 hPa SW 12.9 km/h 38.8 km/h 95 % 12.7 mm 0 W/m2
22:40 -7.9 °C -8.2 °C 34293.4 hPa WSW 20.8 km/h 49.2 km/h 96 % 12.7 mm 0 W/m2
22:45 -7.8 °C -8.2 °C 34293.4 hPa SSW 31.1 km/h 49.2 km/h 96 % 12.7 mm 0 W/m2
22:55 -7.8 °C -8.2 °C 34293.4 hPa South 20.8 km/h 44.1 km/h 96 % 12.7 mm 0 W/m2
23:00 -7.8 °C -8.2 °C 34293.4 hPa SW 18.2 km/h 41.4 km/h 96 % 12.7 mm 0 W/m2
23:05 -7.8 °C -8.1 °C 34293.4 hPa SW 28.5 km/h 36.2 km/h 96 % 7.62 mm 0 W/m2
23:10 -7.8 °C -8.1 °C 34293.4 hPa SSW 12.9 km/h 38.8 km/h 96 % 7.62 mm 0 W/m2
23:15 -7.7 °C -8.1 °C 34293.4 hPa WSW 15.6 km/h 41.4 km/h 96 % 7.62 mm 0 W/m2
23:20 -7.7 °C -8.1 °C 34293.4 hPa SSW 12.9 km/h 41.4 km/h 96 % 7.62 mm 0 W/m2
23:25 -7.7 °C -8.1 °C 34293.4 hPa SSW 10.3 km/h 38.8 km/h 96 % 12.7 mm 0 W/m2
23:30 -7.7 °C -8.1 °C 34293.4 hPa SW 2.6 km/h 38.8 km/h 96 % 12.7 mm 0 W/m2
23:35 -7.7 °C -8.1 °C 34293.4 hPa SSW 18.2 km/h 36.2 km/h 96 % 12.7 mm 0 W/m2
23:40 -7.7 °C -7.9 °C 34293.4 hPa SSW 10.3 km/h 44.1 km/h 97 % 12.7 mm 0 W/m2
23:45 -7.7 °C -8 °C 34293.4 hPa WSW 7.7 km/h 44.1 km/h 96 % 12.7 mm 0 W/m2
23:50 -7.6 °C -7.9 °C 34293.4 hPa WSW 20.8 km/h 31.1 km/h 97 % 7.62 mm 0 W/m2
23:55 -7.6 °C -7.9 °C 34279.9 hPa SSW 12.9 km/h 33.6 km/h 97 % 7.62 mm 0 W/m2
Avec l'autorisation de Weather Underground - 1.75 mb